TimeMST,TemperatureF,Dew PointF,Humidity,Sea Level PressureIn,VisibilityMPH,Wind Direction,Wind SpeedMPH,Gust SpeedMPH,PrecipitationIn,Events,Conditions,WindDirDegrees,DateUTC
12:15 AM,30.2,10.4,44,30.00,10.0,NNW,6.9,-,N/A,,Clear,330,2014-01-05 07:15:00
12:35 AM,32.0,8.6,38,30.01,10.0,NNW,15.0,23.0,N/A,,Clear,340,2014-01-05 07:35:00
12:55 AM,28.4,8.6,43,30.01,10.0,North,12.7,19.6,N/A,,Clear,360,2014-01-05 07:55:00
1:15 AM,28.4,6.8,40,30.02,10.0,NNW,13.8,20.7,N/A,,Clear,340,2014-01-05 08:15:00
1:35 AM,26.6,6.8,43,30.02,10.0,North,15.0,23.0,N/A,,Clear,350,2014-01-05 08:35:00
1:55 AM,26.6,1.4,34,30.02,10.0,North,16.1,21.9,N/A,,Clear,350,2014-01-05 08:55:00
2:15 AM,26.6,-0.4,31,30.03,10.0,North,13.8,18.4,N/A,,Clear,10,2014-01-05 09:15:00
2:35 AM,24.8,-2.2,31,30.03,10.0,North,11.5,17.3,N/A,,Clear,10,2014-01-05 09:35:00
2:55 AM,24.8,-4.0,28,30.03,10.0,NNE,8.1,18.4,N/A,,Clear,30,2014-01-05 09:55:00
3:15 AM,24.8,-7.6,24,30.03,10.0,North,13.8,19.6,N/A,,Clear,360,2014-01-05 10:15:00
3:35 AM,24.8,-9.4,22,30.04,10.0,North,11.5,19.6,N/A,,Clear,350,2014-01-05 10:35:00
3:55 AM,23.0,-9.4,24,30.04,10.0,NNW,11.5,21.9,N/A,,Clear,340,2014-01-05 10:55:00
4:15 AM,23.0,-9.4,24,30.04,10.0,NNW,10.4,17.3,N/A,,Clear,340,2014-01-05 11:15:00
4:35 AM,23.0,-9.4,24,30.03,10.0,NNW,11.5,17.3,N/A,,Clear,340,2014-01-05 11:35:00
4:55 AM,23.0,-9.4,24,30.03,10.0,NNW,15.0,18.4,N/A,,Clear,340,2014-01-05 11:55:00
5:15 AM,21.2,-9.4,26,30.04,10.0,NNW,13.8,19.6,N/A,,Clear,330,2014-01-05 12:15:00
5:35 AM,21.2,-9.4,26,30.04,10.0,NW,15.0,25.3,N/A,,Clear,320,2014-01-05 12:35:00
5:55 AM,23.0,-9.4,24,30.04,10.0,NW,17.3,26.5,N/A,,Clear,320,2014-01-05 12:55:00
6:15 AM,21.2,-7.6,28,30.06,10.0,NW,17.3,24.2,N/A,,Clear,310,2014-01-05 13:15:00
6:35 AM,19.4,-7.6,30,30.06,10.0,NW,16.1,21.9,N/A,,Clear,310,2014-01-05 13:35:00
6:55 AM,19.4,-7.6,30,30.08,10.0,NW,13.8,24.2,N/A,,Clear,320,2014-01-05 13:55:00
7:15 AM,19.4,-7.6,30,30.08,10.0,NW,15.0,24.2,N/A,,Clear,320,2014-01-05 14:15:00
7:35 AM,19.4,-5.8,33,30.09,10.0,NW,12.7,21.9,N/A,,Clear,310,2014-01-05 14:35:00
7:55 AM,21.2,-5.8,30,30.10,10.0,NW,17.3,26.5,N/A,,Clear,310,2014-01-05 14:55:00
8:15 AM,23.0,-5.8,28,30.12,10.0,NW,16.1,23.0,N/A,,Clear,310,2014-01-05 15:15:00
8:35 AM,23.0,-4.0,31,30.13,10.0,NW,16.1,24.2,N/A,,Clear,320,2014-01-05 15:35:00
8:55 AM,24.8,-4.0,28,30.14,10.0,WNW,16.1,24.2,N/A,,Clear,300,2014-01-05 15:55:00
9:15 AM,24.8,-4.0,28,30.16,10.0,NW,16.1,23.0,N/A,,Clear,310,2014-01-05 16:15:00
9:35 AM,26.6,-4.0,26,30.16,10.0,WNW,16.1,21.9,N/A,,Clear,300,2014-01-05 16:35:00
9:55 AM,28.4,-7.6,21,30.16,10.0,WNW,16.1,25.3,N/A,,Clear,300,2014-01-05 16:55:00
10:15 AM,28.4,-9.4,19,30.16,10.0,WNW,19.6,27.6,N/A,,Clear,300,2014-01-05 17:15:00
10:35 AM,30.2,-13.0,15,30.16,10.0,NW,16.1,27.6,N/A,,Clear,310,2014-01-05 17:35:00
10:55 AM,30.2,-11.2,16,30.15,10.0,NW,19.6,29.9,N/A,,Clear,310,2014-01-05 17:55:00
11:15 AM,32.0,-9.4,17,30.14,10.0,NW,18.4,26.5,N/A,,Clear,310,2014-01-05 18:15:00
11:35 AM,32.0,-7.6,18,30.13,10.0,NW,23.0,32.2,N/A,,Clear,310,2014-01-05 18:35:00
11:55 AM,32.0,-7.6,18,30.13,10.0,NW,16.1,28.8,N/A,,Clear,320,2014-01-05 18:55:00
12:15 PM,32.0,-7.6,18,30.12,10.0,NW,18.4,27.6,N/A,,Clear,320,2014-01-05 19:15:00
12:35 PM,32.0,-9.4,17,30.12,10.0,NW,15.0,34.5,N/A,,Clear,320,2014-01-05 19:35:00
12:55 PM,32.0,-9.4,17,30.11,10.0,WNW,16.1,28.8,N/A,,Clear,300,2014-01-05 19:55:00
1:15 PM,32.0,-9.4,17,30.10,10.0,WNW,17.3,29.9,N/A,,Clear,300,2014-01-05 20:15:00
1:35 PM,32.0,-9.4,17,30.11,10.0,NW,20.7,29.9,N/A,,Clear,310,2014-01-05 20:35:00
1:55 PM,32.0,-9.4,17,30.11,10.0,NW,20.7,34.5,N/A,,Clear,320,2014-01-05 20:55:00
2:15 PM,32.0,-9999,N/A,30.11,10.0,NW,21.9,34.5,N/A,,Clear,320,2014-01-05 21:15:00
2:35 PM,32.0,-13.0,14,30.10,10.0,NNW,25.3,38.0,N/A,,Clear,330,2014-01-05 21:35:00
2:55 PM,32.0,-13.0,14,30.11,10.0,NW,19.6,34.5,N/A,,Clear,310,2014-01-05 21:55:00
3:15 PM,32.0,-11.2,15,30.12,10.0,WNW,9.2,27.6,N/A,,Clear,300,2014-01-05 22:15:00
3:35 PM,32.0,-11.2,15,30.12,10.0,NW,8.1,19.6,N/A,,Clear,320,2014-01-05 22:35:00
3:55 PM,32.0,-11.2,15,30.12,10.0,NW,12.7,23.0,N/A,,Clear,310,2014-01-05 22:55:00
4:15 PM,32.0,-11.2,15,30.12,10.0,NW,13.8,25.3,N/A,,Clear,320,2014-01-05 23:15:00
4:35 PM,32.0,-11.2,15,30.13,10.0,NW,13.8,25.3,N/A,,Clear,320,2014-01-05 23:35:00
4:55 PM,30.2,-11.2,16,30.14,10.0,NW,11.5,18.4,N/A,,Clear,310,2014-01-05 23:55:00
5:15 PM,28.4,-11.2,18,30.15,10.0,NW,5.8,-,N/A,,Clear,310,2014-01-06 00:15:00
5:35 PM,26.6,-11.2,19,30.16,10.0,WNW,10.4,-,N/A,,Clear,290,2014-01-06 00:35:00
5:55 PM,28.4,-9.4,19,30.16,10.0,WNW,11.5,-,N/A,,Clear,290,2014-01-06 00:55:00
6:15 PM,28.4,-9.4,19,30.16,10.0,WNW,9.2,-,N/A,,Clear,300,2014-01-06 01:15:00
6:35 PM,26.6,-9.4,21,30.17,10.0,WNW,6.9,-,N/A,,Clear,290,2014-01-06 01:35:00
6:55 PM,26.6,-9.4,21,30.18,10.0,WNW,6.9,-,N/A,,Clear,300,2014-01-06 01:55:00
7:15 PM,26.6,-11.2,19,30.18,10.0,WNW,9.2,-,N/A,,Clear,300,2014-01-06 02:15:00
7:35 PM,26.6,-11.2,19,30.18,10.0,WNW,10.4,-,N/A,,Clear,290,2014-01-06 02:35:00
7:55 PM,26.6,-11.2,19,30.19,10.0,WNW,9.2,-,N/A,,Clear,300,2014-01-06 02:55:00
8:15 PM,26.6,-11.2,19,30.20,10.0,NW,8.1,-,N/A,,Clear,310,2014-01-06 03:15:00
8:35 PM,26.6,-11.2,19,30.20,10.0,WNW,13.8,19.6,N/A,,Clear,300,2014-01-06 03:35:00
8:55 PM,26.6,-11.2,19,30.21,10.0,WNW,8.1,-,N/A,,Clear,300,2014-01-06 03:55:00
9:15 PM,26.6,-9999,N/A,30.22,10.0,WNW,10.4,-,N/A,,Clear,300,2014-01-06 04:15:00
9:35 PM,26.6,-9999,N/A,30.22,10.0,WNW,9.2,-,N/A,,Clear,300,2014-01-06 04:35:00
9:55 PM,26.6,-13.0,17,30.23,10.0,NW,5.8,-,N/A,,Clear,310,2014-01-06 04:55:00
10:15 PM,24.8,-13.0,19,30.23,10.0,WNW,8.1,-,N/A,,Clear,290,2014-01-06 05:15:00
10:35 PM,24.8,-13.0,19,30.25,10.0,Calm,Calm,-,N/A,,Clear,0,2014-01-06 05:35:00
10:55 PM,24.8,-13.0,19,30.25,10.0,NNW,5.8,-,N/A,,Clear,340,2014-01-06 05:55:00
11:15 PM,24.8,-9999,N/A,30.26,10.0,NNW,5.8,-,N/A,,Clear,340,2014-01-06 06:15:00
11:35 PM,23.0,-9999,N/A,30.27,10.0,North,4.6,-,N/A,,Clear,360,2014-01-06 06:35:00
11:55 PM,23.0,-9999,N/A,30.27,10.0,NW,4.6,-,N/A,,Clear,320,2014-01-06 06:55:00